< < Back
Terminal Aerodrome Forecast


Current Version              Previous Versions:   1  2  3  4  5  6  7  8  9  

Terminal Aerodrome Forecast

695
FTUS42 KILM 291418 AAA
TAFFLO
TAF AMD
KFLO 291418Z 2914/3012 05007KT P6SM SCT025
      TEMPO 2914/2916 BKN025
     FM291800 05009KT P6SM VCSH SCT035 SCT060 BKN100
      TEMPO 2918/2922 -SHRA BKN050
     FM300000 06003KT P6SM SCT060 SCT120
     FM300800 02003KT 6SM BR BKN008=



Latest METAR

799
SAUS70 KWBC 300300 RRJ
MTRFLO
METAR KFLO 300253Z AUTO 05005KT 10SM FEW070 25/22 A3008 RMK AO2 SLP183
T02500217 53005


USA.gov is the U.S. government's official web portal to all federal, state and local government web resources and services.